Location: Rancho Del Sol Observatory
(38.7214°N, 120.6350°W)
Time: 06:20:34
(UTC-08:00)

A-11 Canister half - Pass Details

Date: 29 January 2020
Orbit: 1517 x 1683 km, 47.2° (Epoch: 26 February)

Event Time Altitude Azimuth Distance (km) Brightness Sun altitude
Rises 20:36:06 0° 206° (SSW) 4,815 11.8 -38.2°
Reaches altitude 10° 20:39:29 10° 199° (SSW) 3,807 11.1 -38.9°
Enters shadow 20:42:31 21° 188° (S) 2,990 10.4 -39.4°
Maximum altitude 20:48:12 40° 134° (SE) 2,161 - -40.5°
Drops below altitude 10° 20:56:41 10° 69° (ENE) 3,710 - -42.2°
Sets 20:59:55 0° 62° (ENE) 4,681 - -42.8°
